Regional Weather Roundup
Issued by NWS

Home | Current Version | Previous Version | Text Only | Print | Product List | Glossary Off
Versions: 1 2 3 4 5 6 7 8 9 10 11 12 13 14 15 16 17 18 19 20 21 22 23 24 25 26 27 28 29 30 31 32 33 34 35 36 37 38 39 40 41 42 43 44 45 46 47 48 49 50

000
ASUS43 KLMK 150602
RWRKY
KENTUCKY REGIONAL WEATHER ROUNDUP
NATIONAL WEATHER SERVICE LOUISVILLE KY
100 AM EST FRI DEC 15 2017

NOTE "FAIR" INDICATES FEW OR NO CLOUDS BELOW 12,000 FEET
WITH NO SIGNIFICANT WEATHER AND/OR OBSTRUCTIONS TO VISIBILITY.

KYZ001>023-026-027-061>063-070>075-150700-
WESTERN AND SOUTH CENTRAL KENTUCKY

CITY           SKY/WX    TMP DP  RH WIND       PRES   REMARKS
PADUCAH        CLOUDY    32  21  64 W3        30.12S
HENDERSON      CLOUDY    31  23  72 NW6       30.10F WCI  25
OWENSBORO      CLOUDY    32  23  69 NW8       30.10F WCI  25
HOPKINSVILLE   CLOUDY    31  22  67 N5        30.09F WCI  27
BOWLING GREEN  CLOUDY    32  22  66 NW3       30.09F
GLASGOW        NOT AVBL
$$

KYZ024-025-028>034-038-045-046-053-150700-
NORTH CENTRAL KENTUCKY

CITY           SKY/WX    TMP DP  RH WIND       PRES   REMARKS
LOUISVILLE/SDF CLOUDY    28  18  66 E3        30.09F
LOUISVILLE/LOU CLOUDY    27  19  72 E3        30.10F
FORT KNOX      CLOUDY    28  18  65 CALM      30.05F
$$

KYZ035>037-039>044-047>052-055>060-089>105-150700-
NORTHEAST KENTUCKY

CITY           SKY/WX    TMP DP  RH WIND       PRES   REMARKS
LEXINGTON      CLOUDY    26  17  68 NE5       30.06F WCI  20
COVINGTON      CLOUDY    24  16  71 N5        30.05F WCI  18
FRANKFORT      CLOUDY    27  16  63 CALM      30.06F
$$

KYZ054-064>069-076>088-106>120-150700-
SOUTHEAST KENTUCKY

CITY           SKY/WX    TMP DP  RH WIND       PRES   REMARKS
JACKSON        CLOUDY    30  21  69 CALM      30.02F
LONDON         CLOUDY    32  21  64 CALM      30.02F
SOMERSET       NOT AVBL
MIDDLESBORO    CLOUDY    27  24  89 CALM      30.04R
MONTICELLO     CLOUDY    32  25  75 W6        30.06F WCI  26
$$





USA.gov is the U.S. government's official web portal to all federal, state and local government web resources and services.